Regional Weather Roundup
Issued by NWS

Home | Current Version | Previous Version | Text Only | Print | Product List | Glossary On
Versions: 1 2 3 4 5 6 7 8 9 10 11 12 13 14 15 16 17 18 19 20 21 22 23 24 25 26 27 28 29 30 31 32 33 34 35 36 37 38 39 40 41 42 43 44 45 46 47 48 49 50
000
ASUS43 KTOP 301008
RWRKS

WEATHER ROUNDUP FOR KANSAS
NATIONAL WEATHER SERVICE GOODLAND KS
500 AM CDT SAT JUL 30 2016

NOTE:  "FAIR" INDICATES FEW OR NO CLOUDS BELOW 12,000 FEET WITH NO
SIGNIFICANT WEATHER AND/OR OBSTRUCTIONS TO VISIBILITY.

KSZ001>006-013>018-027>032-041>047-301100-
NORTHWEST KANSAS

CITY           SKY/WX    TMP DP  RH WIND       PRES   REMARKS
GOODLAND       PTCLDY    66  62  87 SW6       30.05R
HAYS           CLOUDY    70  61  73 SE6       30.02R
HILL CITY      PTCLDY    66  65  96 E3        30.01F
RUSSELL        CLOUDY    69  67  93 SE6       30.00S
$$

KSZ061>065-074>080-084>089-301100-
SOUTHWEST KANSAS

CITY           SKY/WX    TMP DP  RH WIND       PRES   REMARKS
DODGE CITY     CLEAR     69  66  90 S9        30.02F
ELKHART          N/A     64  60  87 NW2         N/A
GARDEN CITY    PTCLDY    67  65  93 S6        30.04R
GREAT BEND     CLOUDY    70  63  78 S5        30.01S
LIBERAL        CLOUDY    70  63  78 E6        30.05S
PRATT          LGT RAIN  70  66  86 CALM      30.01S
$$

KSZ066>073-081>083-090>101-301100-
SOUTHEAST KANSAS

CITY           SKY/WX    TMP DP  RH WIND       PRES   REMARKS
CHANUTE        CLEAR     69  68  96 CALM      29.99S
COFFEYVILLE    CLEAR     70  69  97 CALM      29.98S
HUTCHINSON     PTCLDY    70  68  93 E3        30.00F
NEWTON         CLEAR     69  68  96 SE6       30.02S
PARSONS        CLEAR     69  68  96 NE3       29.99F
WICHITA INTL   PTCLDY    74  69  85 NE3       29.99S
WICHITA JABRA  PTCLDY    68  68 100 E3        30.00S
WICHITA MCCONL CLEAR     71  68  89 NE1       29.99F
WINFIELD       PTCLDY    72  69  90 CALM      30.00S
$$

KSZ007>012-019>026-033>040-048>060-102>105-301100-
NORTHEAST KANSAS

CITY           SKY/WX    TMP DP  RH WIND       PRES   REMARKS
CONCORDIA      CLOUDY    66  64  93 CALM      30.01F
EMPORIA        CLOUDY    67  67 100 CALM      30.01R
LAWRENCE       CLOUDY    63  62  97 CALM      30.00S
MANHATTAN      CLOUDY    67  65  93 CALM      30.01R
MARYSVILLE     CLOUDY    63  61  94 CALM      30.03R
OLATHE IND     PTCLDY    64  63  96 NE3       30.01S
OLATHE EXE     CLOUDY    67  62  84 N3        30.01S
SALINA         MOCLDY    72  68  87 E3        30.01R
TOPEKA BILLARD CLOUDY    66  63  90 CALM      30.00F
TOPEKA FORBES  CLOUDY    65  62  90 CALM      30.00F
$$




USA.gov is the U.S. government's official web portal to all federal, state and local government web resources and services.